Selawik, AK

1:50 AM AKST on November 19, 2017 (GMT -0900)
Selawik

Weather History for PASK - November, 2012

Change the Weather History Date:

Saturday, November 10, 2012

  Actual Average Record
Temperature  
Mean Temperature 8 °F -  
Max Temperature 15 °F 13 °F 35 °F (1997)
Min Temperature 1 °F 4 °F -18 °F (2004)
Degree Days  
Heating Degree Days 57    
Moisture  
Dew Point 1 °F    
Average Humidity 80    
Maximum Humidity 92    
Minimum Humidity 62    
Precipitation  
Precipitation 0.00 in - - ()
Sea Level Pressure  
Sea Level Pressure 29.85 in    
Wind  
Wind Speed 5 mph (North)    
Max Wind Speed 10 mph    
Max Gust Speed -    
Visibility 10 miles    
Events      
Averages and records for this station are not official NWS values.
T = Trace of Precipitation, MM = Missing Value Source: NWS Daily Summary

Daily Weather History Graph

Daily Weather History Graph

Search for Another Location

Airport or City:

Trip Planner

Search our weather history database for the weather conditions in past years. The results will help you decide how hot, cold, wet, or windy it might be!

Date:

Astronomy

Nov. 10, 2012 Rise Set
Actual Time 10:17 AM AKST 4:29 PM AKST
Civil Twilight 9:10 AM AKST 5:36 PM AKST
Nautical Twilight 8:04 AM AKST 6:42 PM AKST
Astronomical Twilight 7:02 AM AKST 7:43 PM AKST
Moon 5:09 AM AKST (11/10) 3:36 PM AKST (11/10)
Length of Visible Light 8h 25m
Length of Day
6h 12m
Waning Crescent, 13% of the Moon is Illuminated
Nov 10
Waning Crescent
Nov 13
New
Nov 20
First Quarter
Nov 28
Full
Dec 6
Last Quarter

Hourly Weather History & Observations

Time (AKST) Temp. Windchill Dew Point Humidity Pressure Visibility Wind Dir Wind Speed Gust Speed Precip Events Conditions
12:16 AM 15.8 °F 6.1 °F 8.6 °F 73% 29.84 in 10.0 mi ENE 6.9 mph - N/A   Overcast
12:36 AM 15.8 °F 6.1 °F 8.6 °F 73% 29.84 in 10.0 mi ENE 6.9 mph - N/A   Overcast
12:56 AM 15.8 °F 3.4 °F 6.8 °F 68% 29.84 in 10.0 mi ENE 10.4 mph - N/A   Overcast
1:16 AM 15.8 °F 4.2 °F 5.0 °F 62% 29.84 in 10.0 mi NE 9.2 mph - N/A   Scattered Clouds
1:36 AM 12.2 °F -0.2 °F 3.2 °F 67% 29.83 in 10.0 mi NE 9.2 mph - N/A   Clear
1:56 AM 12.2 °F 0.7 °F 6.8 °F 79% 29.83 in 10.0 mi ENE 8.1 mph - N/A   Clear
2:16 AM 12.2 °F 0.7 °F 5.0 °F 73% 29.83 in 10.0 mi ENE 8.1 mph - N/A   Clear
2:36 AM 12.2 °F -0.2 °F 5.0 °F 73% 29.82 in 10.0 mi ENE 9.2 mph - N/A   Clear
2:56 AM 12.2 °F -1.0 °F 3.2 °F 67% 29.82 in 10.0 mi ENE 10.4 mph - N/A   Clear
3:16 AM 10.4 °F -1.5 °F 3.2 °F 73% 29.82 in 10.0 mi East 8.1 mph - N/A   Clear
3:36 AM 10.4 °F 2.2 °F 1.4 °F 67% 29.83 in 10.0 mi East 4.6 mph - N/A   Clear
3:56 AM 10.4 °F -0.4 °F 3.2 °F 73% 29.82 in 10.0 mi East 6.9 mph - N/A   Clear
4:16 AM 8.6 °F -1.3 °F 1.4 °F 73% 29.82 in 10.0 mi East 5.8 mph - N/A   Clear
4:36 AM 8.6 °F 0.1 °F 1.4 °F 73% 29.82 in 10.0 mi East 4.6 mph - N/A   Clear
4:56 AM 10.4 °F 0.8 °F 6.8 °F 85% 29.82 in 10.0 mi East 5.8 mph - N/A   Clear
5:16 AM 8.6 °F 0.1 °F -0.4 °F 67% 29.82 in 10.0 mi East 4.6 mph - N/A   Clear
5:36 AM 8.6 °F 2.0 °F 3.2 °F 79% 29.81 in 10.0 mi ENE 3.5 mph - N/A   Clear
5:56 AM 8.6 °F 2.0 °F 1.4 °F 73% 29.81 in 10.0 mi ENE 3.5 mph - N/A   Clear
6:36 AM 8.6 °F - -0.4 °F 67% 29.81 in 10.0 mi Calm Calm - N/A   Clear
6:56 AM 6.8 °F -3.5 °F 1.4 °F 79% 29.81 in 10.0 mi ESE 5.8 mph - N/A   Clear
7:16 AM 3.2 °F - -5.8 °F 66% 29.81 in 10.0 mi Calm Calm - N/A   Clear
7:36 AM 3.2 °F -4.2 °F -0.4 °F 85% 29.81 in 10.0 mi WSW 3.5 mph - N/A   Clear
7:56 AM 3.2 °F -4.2 °F -2.2 °F 78% 29.82 in 9.0 mi WSW 3.5 mph - N/A   Clear
8:16 AM 3.2 °F -4.2 °F -2.2 °F 78% 29.82 in 10.0 mi West 3.5 mph - N/A   Clear
8:36 AM 3.2 °F -4.2 °F 1.4 °F 92% 29.82 in 10.0 mi West 3.5 mph - N/A   Clear
8:56 AM 3.2 °F -4.2 °F -2.2 °F 78% 29.83 in 10.0 mi West 3.5 mph - N/A   Clear
9:16 AM 3.2 °F -4.2 °F 1.4 °F 92% 29.83 in 10.0 mi WNW 3.5 mph - N/A   Clear
9:36 AM 5.0 °F -4.1 °F -0.4 °F 78% 29.84 in 10.0 mi WNW 4.6 mph - N/A   Clear
9:56 AM 3.2 °F -4.2 °F -0.4 °F 85% 29.84 in 10.0 mi NW 3.5 mph - N/A   Clear
10:16 AM 3.2 °F -6.2 °F -0.4 °F 85% 29.84 in 10.0 mi WNW 4.6 mph - N/A   Clear
10:36 AM 3.2 °F -6.2 °F -0.4 °F 85% 29.84 in 10.0 mi WNW 4.6 mph - N/A   Clear
10:56 AM 3.2 °F -4.2 °F -0.4 °F 85% 29.84 in 10.0 mi NW 3.5 mph - N/A   Clear
11:16 AM 3.2 °F - -2.2 °F 78% 29.85 in 10.0 mi Calm Calm - N/A   Clear
11:36 AM 3.2 °F - -0.4 °F 85% 29.85 in 10.0 mi Calm Calm - N/A   Clear
11:56 AM 1.4 °F - -5.8 °F 72% 29.85 in 10.0 mi Calm Calm - N/A   Clear
12:16 PM 3.2 °F -4.2 °F 1.4 °F 92% 29.85 in 10.0 mi West 3.5 mph - N/A   Clear
12:36 PM 5.0 °F -2.1 °F -0.4 °F 78% 29.85 in 10.0 mi WNW 3.5 mph - N/A   Clear
12:56 PM 5.0 °F - -0.4 °F 78% 29.85 in 10.0 mi Calm Calm - N/A   Clear
1:16 PM 5.0 °F - -0.4 °F 78% 29.85 in 10.0 mi Calm Calm - N/A   Clear
1:36 PM 6.8 °F - 1.4 °F 79% 29.85 in 10.0 mi Calm Calm - N/A   Clear
1:56 PM 5.0 °F - -0.4 °F 78% 29.85 in 10.0 mi Calm Calm - N/A   Clear
2:16 PM 6.8 °F - 1.4 °F 79% 29.86 in 10.0 mi Calm Calm - N/A   Clear
2:36 PM 6.8 °F - 1.4 °F 79% 29.86 in 10.0 mi Calm Calm - N/A   Clear
2:56 PM 6.8 °F - 1.4 °F 79% 29.86 in 10.0 mi Calm Calm - N/A   Clear
3:16 PM 6.8 °F - 1.4 °F 79% 29.85 in 10.0 mi Calm Calm - N/A   Clear
3:36 PM 6.8 °F - 1.4 °F 79% 29.85 in 10.0 mi Calm Calm - N/A   Clear
3:56 PM 6.8 °F - -0.4 °F 72% 29.85 in 10.0 mi Calm Calm - N/A   Clear
4:16 PM 5.0 °F - 1.4 °F 85% 29.86 in 10.0 mi Calm Calm - N/A   Clear
4:36 PM 5.0 °F - 1.4 °F 85% 29.86 in 10.0 mi Calm Calm - N/A   Clear
4:56 PM 3.2 °F -4.2 °F -0.4 °F 85% 29.86 in 10.0 mi SW 3.5 mph - N/A   Clear
5:16 PM 3.2 °F -6.2 °F -0.4 °F 85% 29.86 in 8.0 mi WSW 4.6 mph - N/A   Clear
5:36 PM 3.2 °F - -0.4 °F 85% 29.86 in 10.0 mi Calm Calm - N/A   Clear
5:56 PM 3.2 °F - 1.4 °F 92% 29.87 in 8.0 mi Calm Calm - N/A   Clear
6:16 PM 3.2 °F -4.2 °F -0.4 °F 85% 29.87 in 9.0 mi West 3.5 mph - N/A   Clear
6:36 PM 3.2 °F -4.2 °F -2.2 °F 78% 29.87 in 10.0 mi West 3.5 mph - N/A   Clear
7:16 PM 3.2 °F -4.2 °F -2.2 °F 78% 29.88 in 10.0 mi WSW 3.5 mph - N/A   Clear
7:36 PM 3.2 °F -4.2 °F -0.4 °F 85% 29.88 in 10.0 mi WSW 3.5 mph - N/A   Clear
7:56 PM 1.4 °F -8.3 °F -2.2 °F 85% 29.88 in 10.0 mi WSW 4.6 mph - N/A   Clear
8:16 PM 1.4 °F -6.2 °F -0.4 °F 92% 29.89 in 10.0 mi WSW 3.5 mph - N/A   Clear
8:36 PM 3.2 °F - -0.4 °F 85% 29.88 in 10.0 mi Calm Calm - N/A   Clear
8:56 PM 1.4 °F - -0.4 °F 92% 29.89 in 10.0 mi Calm Calm - N/A   Clear
9:16 PM 1.4 °F - -0.4 °F 92% 29.89 in 10.0 mi Calm Calm - N/A   Clear
9:36 PM 1.4 °F - -4.0 °F 78% 29.89 in 10.0 mi Calm Calm - N/A   Clear
9:56 PM 1.4 °F - -2.2 °F 85% 29.88 in 10.0 mi Calm Calm - N/A   Clear
10:16 PM 1.4 °F - -4.0 °F 78% 29.89 in 10.0 mi Calm Calm - N/A   Clear
10:36 PM 1.4 °F -6.2 °F -2.2 °F 85% 29.89 in 10.0 mi NE 3.5 mph - N/A   Clear
10:56 PM 1.4 °F - -2.2 °F 85% 29.90 in 10.0 mi Calm Calm - N/A   Clear
11:16 PM 1.4 °F - -0.4 °F 92% 29.90 in 10.0 mi Calm Calm - N/A   Clear
11:36 PM 1.4 °F - -2.2 °F 85% 29.90 in 10.0 mi Calm Calm - N/A   Clear
11:56 PM 1.4 °F - -2.2 °F 85% 29.91 in 10.0 mi Calm Calm - N/A   Clear